Location: DARK SKY Beskydy - Park tmavé oblohy, www.darkskybeskydy.cz
(49.4926°N, 18.5016°E)
Time: 06:35:54
(UTC+02:00)

Transit 2A - All Passes

Search period start: 13 July 2024 00:00
Search period end: 23 July 2024 00:00
Orbit: 591 x 960 km, 66.7° (Epoch: 12 July)

Date Brightness Start Highest point End Pass type
(mag) Time Alt. Az. Time Alt. Az. Time Alt. Az.
13 Jul - 10:11:36 10° S 10:16:12 32° ESE 10:21:14 10° NE daylight
13 Jul - 11:53:51 10° SW 11:59:05 54° NW 12:04:55 10° NNE daylight
13 Jul - 13:39:30 10° WNW 13:43:39 20° NNW 13:48:02 10° NNE daylight
13 Jul - 15:25:45 10° NNW 15:29:12 15° N 15:32:46 10° NE daylight
13 Jul - 17:09:31 10° NNW 17:14:34 26° NNE 17:19:45 10° E daylight
13 Jul - 18:52:29 10° NW 18:58:46 74° NE 19:05:08 10° SE daylight
13 Jul - 20:36:21 10° NW 20:41:30 27° WSW 20:46:39 10° SSW daylight
14 Jul - 09:37:10 10° SSE 09:41:11 23° ESE 09:45:32 10° ENE daylight
14 Jul - 11:18:25 10° SW 11:23:43 72° NW 11:29:38 10° NE daylight
14 Jul - 13:03:31 10° W 13:07:58 23° NNW 13:12:44 10° NNE daylight
14 Jul - 14:50:01 10° NW 14:53:24 15° N 14:56:55 10° NE daylight
14 Jul - 16:34:15 10° NNW 16:38:55 22° NNE 16:43:43 10° ENE daylight
14 Jul - 18:17:14 10° NNW 18:23:25 58° NE 18:29:40 10° SE daylight
14 Jul - 20:00:45 10° NW 20:06:27 37° WSW 20:12:08 10° S daylight
15 Jul - 09:03:08 10° SE 09:06:14 16° ESE 09:09:32 10° ENE daylight
15 Jul - 10:43:07 10° SSW 10:48:24 86° SE 10:54:20 10° NE daylight
15 Jul - 12:27:36 10° W 12:32:21 28° NNW 12:37:28 10° NNE daylight
15 Jul - 14:14:08 10° NW 14:17:37 16° N 14:21:13 10° NNE daylight
15 Jul - 15:58:55 10° NNW 16:03:13 19° NNE 16:07:39 10° ENE daylight
15 Jul - 17:42:00 10° NNW 17:47:59 45° NE 17:54:04 10° ESE daylight
15 Jul - 19:25:16 10° NW 19:31:19 50° WSW 19:37:21 10° S daylight
16 Jul - 08:30:22 10° ESE 08:31:22 10° E 08:32:23 10° E daylight
16 Jul - 10:07:59 10° SSW 10:13:10 63° ESE 10:18:58 10° NE daylight
16 Jul - 11:51:48 10° WSW 11:56:46 34° NW 12:02:13 10° NNE daylight
16 Jul - 13:38:11 10° NW 13:41:50 17° NNW 13:45:39 10° NNE daylight
16 Jul - 15:23:31 10° NNW 15:27:29 17° NNE 15:31:33 10° NE daylight
16 Jul - 17:06:45 10° NNW 17:12:29 36° NE 17:18:19 10° ESE daylight
16 Jul - 18:49:52 10° NW 18:56:07 67° WSW 19:02:23 10° SSE daylight
16 Jul - 20:35:10 10° WNW 20:38:15 14° WSW 20:41:19 10° SW daylight
17 Jul - 09:33:03 10° S 09:38:02 45° ESE 09:43:33 10° NE daylight
17 Jul - 11:16:06 10° WSW 11:21:16 43° NW 11:26:57 10° NNE daylight
17 Jul - 13:02:09 10° WNW 13:06:05 18° NNW 13:10:12 10° NNE daylight
17 Jul - 14:48:02 10° NNW 14:51:43 16° N 14:55:30 10° NE daylight
17 Jul - 16:31:31 10° NNW 16:36:56 30° NE 16:42:27 10° E daylight
17 Jul - 18:14:32 10° NW 18:20:52 87° WSW 18:27:13 10° SSE daylight
17 Jul - 19:58:54 10° WNW 20:03:18 20° WSW 20:07:41 10° SSW daylight
18 Jul - 08:58:20 10° S 09:02:57 32° ESE 09:08:01 10° NE daylight
18 Jul - 10:40:31 10° SW 10:45:50 55° NW 10:51:43 10° NNE daylight
18 Jul - 12:26:08 10° WNW 12:30:22 21° NNW 12:34:50 10° NNE daylight
18 Jul - 14:12:25 10° NNW 14:15:55 16° N 14:19:32 10° NE daylight
18 Jul - 15:56:15 10° NNW 16:01:20 25° NNE 16:06:30 10° E daylight
18 Jul - 17:39:14 10° NW 17:45:33 73° NE 17:51:53 10° SE daylight
18 Jul - 19:23:05 10° NW 19:28:17 28° WSW 19:33:29 10° SSW daylight
19 Jul - 08:23:54 10° SSE 08:27:57 23° ESE 08:32:18 10° ENE daylight
19 Jul - 10:05:05 10° SW 10:10:27 73° NW 10:16:26 10° NE daylight
19 Jul - 11:50:09 10° W 11:54:42 24° NNW 11:59:32 10° NNE daylight
19 Jul - 13:36:40 10° NW 13:40:08 15° N 13:43:41 10° NNE daylight
19 Jul - 15:20:58 10° NNW 15:25:39 22° NNE 15:30:28 10° ENE daylight
19 Jul - 17:03:59 10° NNW 17:10:10 57° NE 17:16:25 10° SE daylight
19 Jul - 18:47:29 10° NW 18:53:14 37° WSW 18:58:56 10° S daylight
20 Jul - 07:49:54 10° SE 07:53:00 16° ESE 07:56:16 10° ENE daylight
20 Jul - 09:29:48 10° SSW 09:35:09 84° SE 09:41:07 10° NE daylight
20 Jul - 11:14:15 10° W 11:19:04 28° NNW 11:24:16 10° NNE daylight
20 Jul - 13:00:47 10° NW 13:04:20 16° N 13:08:00 10° NNE daylight
20 Jul - 14:45:38 10° NNW 14:49:57 19° NNE 14:54:23 10° ENE daylight
20 Jul - 16:28:44 10° NNW 16:34:44 45° NE 16:40:47 10° ESE daylight
20 Jul - 18:12:01 10° NW 18:18:06 51° WSW 18:24:09 10° S daylight
21 Jul - 07:17:14 10° ESE 07:18:08 10° E 07:19:01 10° E daylight
21 Jul - 08:54:41 10° SSW 08:59:55 61° ESE 09:05:45 10° NE daylight
21 Jul - 10:38:26 10° WSW 10:43:30 35° NW 10:49:01 10° NNE daylight
21 Jul - 12:24:48 10° NW 12:28:33 17° NNW 12:32:27 10° NNE daylight
21 Jul - 14:10:13 10° NNW 14:14:12 17° NNE 14:18:17 10° NE daylight
21 Jul - 15:53:29 10° NNW 15:59:13 36° NE 16:05:02 10° ESE daylight
21 Jul - 17:36:37 10° NW 17:42:54 68° WSW 17:49:09 10° SSE daylight
21 Jul - 19:21:49 10° WNW 19:25:02 14° WSW 19:28:13 10° SW daylight
22 Jul - 08:19:45 10° S 08:24:46 44° ESE 08:30:19 10° NE daylight
22 Jul - 10:02:44 10° WSW 10:07:59 44° NW 10:13:45 10° NNE daylight
22 Jul - 11:48:46 10° WNW 11:52:48 19° NNW 11:57:00 10° NNE daylight
22 Jul - 13:34:42 10° NNW 13:38:25 16° N 13:42:14 10° NE daylight
22 Jul - 15:18:15 10° NNW 15:23:40 30° NNE 15:29:10 10° E daylight
22 Jul - 17:01:17 10° NW 17:07:38 89° WSW 17:13:58 10° SSE daylight
22 Jul - 18:45:37 10° WNW 18:50:05 20° WSW 18:54:31 10° SSW daylight
